GSAT 20

导读

GSAT-20是印度空间研究组织研发的通信卫星,于2024年11月由SpaceX猎鹰9号火箭在卡纳维拉尔角发射。卫星重约4.7吨,因重量超出印度火箭运力,印度采购商业发射服务完成发射。它可通过32个波束提供48Gbps通信容量,设计寿命14年,将大幅提升印度通信基础设施能力,增强区域高速网络覆盖。

基本信息
目录编号:
62028
目录名称:
GSAT 20
国际标识:
2024-214A
轨道中心:
EARTH
卫星名称:
GSAT 20
卫星全名:
GSAT 20
卫星状态:
在轨 (已飞行579 天)
发射日期:
2024-11-18 UTC
国别 :
印度 (IN)
星等 :
--
轨道信息
数据来源 国际轨道数据 AOE轨道数据
星历时间 2026-06-20T17:43:44+0800
13小时前
查看轨道信息
2026-06-21T04:00:00+0800
2小时前
查看轨道信息
半长轴 42165.065km 42165.009km
偏心率 0.0001953 0.0002057
轨道倾角 0.046° 0.047°
近地点辐角 329.634° 330.373°
升交点赤经 108.920° 108.167°
平近点角 43.935° 198.437°
近地点 35778.693km 35778.198km
远地点 35795.163km 35795.546km
周期 1436.114分钟 1436.111分钟
每日圈数 1.002706 1.002708
详细信息
使用方式:
暂无
2D轨道图
3D轨道图
轨道高度分析图
轨道倾角分析图
轨道综合分析图
查看轨道综合分析图